ORBCOMM-X 1 21576U 91050C 10210.79115693 +.00000022 +00000-0 +21023-4 0 03788 2 21576 098.5180 164.8329 0002749 253.9143 106.1731 14.40021552999208 ORBCOMM FM 1 1 23545U 95017A 10210.66684880 .00000330 00000-0 80022-4 0 5652 2 23545 069.9726 255.8840 0008494 359.5079 000.6052 14.61569822813600 ORBCOMM FM 2 1 23546U 95017B 10210.65119065 +.00000356 +00000-0 +85478-4 0 06244 2 23546 069.9752 258.1266 0010742 345.7946 014.2900 14.61458276813611 ORBCOMM FM 8 1 25112U 97084A 10210.49328787 -.00000135 +00000-0 +20052-5 0 05845 2 25112 045.0169 238.2885 0009819 310.3805 049.6189 14.34422849658738 ORBCOMM FM 10 1 25113U 97084B 10210.52806125 +.00000398 +00000-0 +18969-3 0 03139 2 25113 045.0186 238.9579 0008290 283.7279 076.2645 14.34432184658731 ORBCOMM FM 11 1 25114U 97084C 10210.58952589 +.00000313 +00000-0 +15966-3 0 02491 2 25114 045.0177 238.2917 0008714 290.1883 069.8024 14.34423763658748 ORBCOMM FM 12 1 25115U 97084D 10210.50207722 +.00000120 +00000-0 +92011-4 0 02455 2 25115 045.0176 238.4450 0007373 290.3551 069.6501 14.34422880658732 ORBCOMM FM 9 1 25116U 97084E 10210.58061560 .00000088 00000-0 80550-4 0 4070 2 25116 045.0183 238.4742 0007907 279.1766 080.8182 14.34422139658749 ORBCOMM FM 5 1 25117U 97084F 10210.47582992 +.00000142 +00000-0 +99685-4 0 03413 2 25117 045.0174 239.2297 0004247 292.3258 067.7146 14.34415123658728 ORBCOMM FM 6 1 25118U 97084G 10210.53691193 +.00000352 +00000-0 +17378-3 0 02303 2 25118 045.0172 238.8141 0003626 287.7430 072.3025 14.34419066658739 ORBCOMM FM 7 1 25119U 97084H 10210.55425745 -.00000386 +00000-0 -86250-4 0 04952 2 25119 045.0173 238.9349 0005980 285.9732 074.0472 14.34426291658735 ORBCOMM FM 3 1 25158U 98007B 10210.72478492 +.00000046 +00000-0 +73237-4 0 02362 2 25158 107.9635 219.8588 0052883 304.8569 054.7554 14.25599561647594 ORBCOMM FM 4 1 25159U 98007C 10210.79983781 .00000170 00000-0 12537-3 0 2286 2 25159 107.9647 219.8139 0048512 305.7349 053.9244 14.25616812647631 ORBCOMM FM 17 1 25413U 98046A 10210.81895963 +.00000251 +00000-0 +15684-3 0 03691 2 25413 044.9950 161.8107 0003382 267.0410 093.0044 14.27645733624945 ORBCOMM FM 18 1 25414U 98046B 10210.90493267 .00000059 00000-0 79112-4 0 3258 2 25414 044.9950 160.5716 0004982 255.8445 104.1864 14.28033409624966 ORBCOMM FM 19 1 25415U 98046C 10210.84489102 -.00000093 +00000-0 +18093-4 0 03604 2 25415 044.9956 161.0628 0003704 262.3979 097.6446 14.28032161624952 ORBCOMM FM 20 1 25416U 98046D 10210.29504443 -.00000230 +00000-0 -36309-4 0 08014 2 25416 044.9965 163.8057 0003019 302.8726 057.1839 14.28033793624834 ORBCOMM FM 16 1 25417U 98046E 10210.86457523 -.00000238 +00000-0 -39813-4 0 04077 2 25417 044.9984 162.1597 0004821 292.1879 067.8453 14.28035310624959 ORBCOMM FM 15 1 25418U 98046F 10210.87399342 +.00000042 +00000-0 +72288-4 0 04583 2 25418 044.9977 162.3379 0005658 275.3094 084.7109 14.28043235624954 ORBCOMM FM 14 1 25419U 98046G 10210.88472318 +.00000227 +00000-0 +14606-3 0 04179 2 25419 044.9996 162.2235 0003878 289.1640 070.8777 14.28030092624952 ORBCOMM FM 13 1 25420U 98046H 10210.89472600 +.00000343 +00000-0 +19233-3 0 03030 2 25420 044.9996 162.5636 0005110 273.5635 086.4625 14.28028373624981 ORBCOMM FM 21 1 25475U 98053A 10210.54000686 +.00000045 +00000-0 +71888-4 0 03507 2 25475 045.0095 249.1745 0004855 194.2217 165.8498 14.29095989618088 ORBCOMM FM 22 1 25476U 98053B 10210.50520442 .00000314 00000-0 17739-3 0 297 2 25476 045.0097 249.7246 0004440 226.7070 133.3413 14.29102111618062 ORBCOMM FM 23 1 25477U 98053C 10210.56273893 +.00000475 +00000-0 +24037-3 0 03435 2 25477 045.0101 249.1812 0004216 221.4861 138.5663 14.29103395618242 ORBCOMM FM 24 1 25478U 98053D 10210.55143745 +.00000207 +00000-0 +13530-3 0 09207 2 25478 045.0112 249.4867 0004210 234.6401 125.4055 14.29106367618228 ORBCOMM FM 25 1 25479U 98053E 10210.51690071 +.00000020 +00000-0 +62352-4 0 02161 2 25479 045.0103 249.0084 0005847 231.4104 128.6215 14.29093384618214 ORBCOMM FM 26 1 25480U 98053F 10210.48541700 -.00000004 +00000-0 +52700-4 0 02959 2 25480 045.0083 239.3468 0008108 242.0452 117.9573 14.29376288618314 ORBCOMM FM 27 1 25481U 98053G 10210.52849065 +.00000099 +00000-0 +93131-4 0 08266 2 25481 045.0094 248.6184 0002905 227.6031 132.4567 14.29089817618219 ORBCOMM FM 28 1 25482U 98053H 10210.49967237 -.00000021 +00000-0 +45366-4 0 09427 2 25482 045.0093 218.5685 0005915 245.3876 114.6357 14.30210587618591 ORBCOMM FM 30 1 25980U 99065A 10210.73470887 .00000335 00000-0 18608-3 0 8717 2 25980 045.0331 053.7250 0004713 036.1099 324.0042 14.28975623555576 ORBCOMM FM 31 1 25981U 99065B 10210.86062141 +.00000382 +00000-0 +20423-3 0 09735 2 25981 045.0247 050.5189 0004463 043.9406 316.1765 14.28990325555580 ORBCOMM FM 32 1 25982U 99065C 10210.57785757 +.00000212 +00000-0 +13656-3 0 09045 2 25982 045.0234 050.3554 0006982 037.4938 322.6391 14.29379847555563 ORBCOMM FM 33 1 25983U 99065D 10210.68085829 +.00000116 +00000-0 +10033-3 0 08814 2 25983 045.0317 053.6488 0003993 037.4689 322.6443 14.28946668555557 ORBCOMM FM 36 1 25984U 99065E 10210.84719152 -.00000195 00000-0 -21898-4 0 9043 2 25984 045.0401 054.7061 0002805 305.2617 054.7948 14.28978308555581 ORBCOMM FM 35 1 25985U 99065F 10210.83257525 +.00000037 +00000-0 +69200-4 0 09372 2 25985 045.0426 055.6860 0003118 042.1247 317.9832 14.28977444555586 ORBCOMM FM 34 1 25986U 99065G 10210.88846377 +.00000259 +00000-0 +15644-3 0 08835 2 25986 045.0412 054.8728 0004391 009.0478 351.0429 14.28974814555598 ORBCOMM FM 38 1 33060U 08031A 10210.82072391 +.00000007 +00000-0 +34256-4 0 06707 2 33060 048.4474 329.3903 0006532 333.6440 026.4132 14.68851670113259 ORBCOMM FM 41 1 33061U 08031B 10210.77476240 -.00000004 +00000-0 +32328-4 0 06765 2 33061 048.4496 329.9702 0005652 323.4077 036.6438 14.68822181113259 ORBCOMM FM 29 1 33062U 08031C 10210.78313845 .00000026 00000-0 37603-4 0 6537 2 33062 048.4460 331.3213 0007678 326.8109 033.2318 14.68483086113233 ORBCOMM FM 39 1 33063U 08031D 10210.87336250 -.00000076 +00000-0 +20285-4 0 06740 2 33063 048.4453 331.8127 0009565 320.9366 039.0840 14.68283805113233 ORBCOMM FM 37 1 33064U 08031E 10210.80687450 -.00000029 +00000-0 +28188-4 0 06518 2 33064 048.4464 330.7215 0007261 327.6771 032.3693 14.68561997113241 ORBCOMM FM 40 1 33065U 08031F 10210.80671318 +.00000057 +00000-0 +43122-4 0 06396 2 33065 048.4489 332.3605 0008450 328.5575 031.4822 14.68264492113225